EW2893 Weather Reports


Display with metric or nautical units.
time (UTC)temp
F
wind
direction
speed
MPH
gust
MPH
rain 1hr
in
rain 24hr
in
rain mn
in
humidity
%
barometer
mb
20200405103019 37 357 0.0 4.0 0.00 0.00 0.00 87 1019.3
20200405102019 37 353 0.0 4.0 0.00 0.00 0.00 87 1019.3
20200405101019 38 0 3.0 7.0 0.00 0.00 0.00 87 1018.3
20200405100019 38 348 4.0 6.0 0.00 0.00 0.00 87 1018.3
20200405095019 38 335 3.0 6.0 0.00 0.00 0.00 87 1018.3
20200405094019 38 3 3.0 6.0 0.00 0.00 0.00 87 1018.3
20200405093019 38 353 4.0 4.0 0.00 0.00 0.00 87 1017.3
20200405092019 38 44 0.0 4.0 0.00 0.00 0.00 87 1017.3
20200405091019 38 42 0.0 3.0 0.00 0.00 0.00 86 1018.3
20200405090019 38 48 0.0 3.0 0.00 0.00 0.00 86 1018.3
20200405085019 38 13 0.0 4.0 0.00 0.00 0.00 86 1018.3
20200405084019 38 30 4.0 6.0 0.00 0.00 0.00 84 1018.3
20200405083019 39 17 3.0 3.0 0.00 0.00 0.00 84 1018.3
20200405082019 39 7 0.0 0.0 0.00 0.00 0.00 84 1018.3
20200405081020 39 7 0.0 5.0 0.00 0.00 0.00 84 1018.3
20200405080019 40 36 3.0 6.0 0.00 0.00 0.00 84 1018.3
20200405075019 40 50 3.0 6.0 0.00 0.00 0.00 84 1018.3
20200405074020 40 45 0.0 5.0 0.00 0.00 0.00 83 1018.3
20200405073019 40 48 4.0 6.0 0.00 0.00 0.00 83 1018.3
20200405072019 41 47 0.0 6.0 0.00 0.00 0.00 83 1018.3
20200405071019 41 47 4.0 6.0 0.00 0.00 0.00 83 1018.3
20200405070019 41 36 5.0 8.0 0.00 0.00 0.00 83 1018.3
20200405065020 42 53 4.0 7.0 0.00 0.00 0.00 83 1018.3
20200405064019 42 9 4.0 6.0 0.00 0.00 0.00 83 1018.3
20200405063020 42 39 5.0 8.0 0.00 0.00 0.00 82 1018.3
20200405062019 42 24 6.0 6.0 0.00 0.00 0.00 82 1018.3
20200405061019 42 35 4.0 8.0 0.00 0.00 0.00 82 1018.3
20200405060019 42 50 5.0 6.0 0.00 0.00 0.00 82 1019.3
20200405055019 42 51 3.0 7.0 0.00 0.00 0.00 82 1019.3
20200405054019 43 16 6.0 7.0 0.00 0.00 0.00 83 1019.3
20200405053019 43 12 6.0 6.0 0.00 0.00 0.00 82 1019.3
20200405052019 43 39 5.0 10.0 0.00 0.00 0.00 82 1019.3
20200405051019 43 49 4.0 8.0 0.00 0.00 0.00 82 1018.3
20200405050020 43 29 6.0 10.0 0.00 0.00 0.00 82 1019.3
20200405045019 43 24 6.0 10.0 0.00 0.00 0.00 82 1019.3
20200405044019 43 34 7.0 11.0 0.00 0.00 0.00 82 1019.3
20200405043019 44 45 3.0 9.0 0.00 0.00 0.00 82 1019.3
20200405042019 44 17 5.0 9.0 0.00 0.00 0.00 83 1019.3
20200405041019 44 33 3.0 9.0 0.00 0.00 0.00 83 1019.3
20200405040019 44 6 6.0 9.0 0.00 0.00 0.00 83 1018.3
20200405035019 44 23 5.0 8.0 0.00 0.00 0.00 83 1018.3
20200405034019 44 41 5.0 9.0 0.00 0.00 0.00 83 1018.3
20200405033019 44 31 6.0 10.0 0.00 0.00 0.00 84 1018.3
20200405032019 44 34 6.0 10.0 0.00 0.00 0.00 86 1018.3
20200405031019 44 44 5.0 9.0 0.00 0.00 0.00 86 1018.3
20200405030019 44 45 4.0 6.0 0.00 0.00 0.00 86 1018.3
20200405025019 44 43 4.0 7.0 0.00 0.00 0.00 86 1018.3
20200405024019 44 49 3.0 9.0 0.00 0.00 0.00 86 1018.3
20200405023019 44 33 5.0 9.0 0.00 0.00 0.00 84 1018.3
20200405022019 44 16 6.0 9.0 0.00 0.00 0.00 84 1018.3
20200405021019 44 41 4.0 9.0 0.00 0.00 0.00 84 1018.3
20200405020019 44 56 5.0 8.0 0.00 0.00 0.00 83 1018.3
20200405015019 44 38 3.0 11.0 0.00 0.00 0.00 83 1018.3
20200405014019 44 36 5.0 6.0 0.00 0.00 0.00 83 1018.3
20200405013019 44 18 6.0 6.0 0.00 0.00 0.00 83 1018.3
20200405012019 44 17 4.0 8.0 0.00 0.00 0.00 83 1018.3
20200405011019 44 49 4.0 9.0 0.00 0.00 0.00 83 1018.3
20200405010019 44 32 4.0 8.0 0.00 0.00 0.00 82 1017.3
20200405005019 44 13 5.0 8.0 0.00 0.00 0.00 82 1017.3
20200405004019 44 23 8.0 9.0 0.00 0.00 0.00 82 1018.3
20200405003019 44 26 8.0 10.0 0.00 0.00 0.00 82 1018.3
20200405002019 44 12 5.0 9.0 0.00 0.00 0.00 82 1018.3
20200405001019 44 10 7.0 10.0 0.00 0.00 0.00 81 1017.3
20200405000019 44 14 6.0 9.0 0.00 0.00 0.00 81 1018.3
20200404235019 44 21 5.0 8.0 0.00 0.00 0.00 81 1018.3
20200404234019 44 19 6.0 10.0 0.00 0.00 0.00 81 1018.3
20200404233019 44 25 8.0 10.0 0.00 0.00 0.00 81 1018.3
20200404232019 44 20 7.0 9.0 0.00 0.00 0.00 81 1018.3
20200404231019 44 9 6.0 10.0 0.00 0.00 0.00 80 1018.3
20200404230019 44 26 5.0 10.0 0.00 0.00 0.00 80 1018.3
20200404225019 45 5 4.0 10.0 0.00 0.00 0.00 79 1018.3
20200404224019 45 30 8.0 9.0 0.00 0.00 0.00 79 1017.3
20200404223018 45 4 8.0 10.0 0.00 0.00 0.00 79 1018.3
20200404222019 45 6 8.0 12.0 0.00 0.00 0.00 79 1018.3
20200404221019 45 357 8.0 11.0 0.00 0.00 0.00 79 1018.3
20200404220019 45 0 5.0 11.0 0.00 0.00 0.00 79 1018.3
20200404215019 45 1 8.0 11.0 0.00 0.00 0.00 80 1018.3
20200404214018 45 6 9.0 11.0 0.00 0.00 0.00 81 1018.3
20200404213019 44 344 9.0 13.0 0.00 0.00 0.00 81 1018.3
20200404212018 44 353 9.0 13.0 0.00 0.00 0.00 81 1018.3
20200404211019 45 324 11.0 13.0 0.00 0.00 0.00 80 1018.3
20200404210018 45 343 9.0 13.0 0.00 0.00 0.00 80 1018.3
20200404205019 45 345 5.0 11.0 0.00 0.00 0.00 79 1018.3
20200404204018 45 314 9.0 11.0 0.00 0.00 0.00 79 1018.3
20200404203018 45 342 10.0 11.0 0.00 0.00 0.00 79 1018.3
20200404202018 45 7 11.0 11.0 0.00 0.00 0.00 79 1018.3
20200404201018 45 353 6.0 12.0 0.00 0.00 0.00 78 1018.3
20200404200018 46 333 11.0 13.0 0.00 0.00 0.00 79 1018.3
20200404195019 46 346 11.0 11.0 0.00 0.00 0.00 78 1018.3
20200404194018 46 334 6.0 10.0 0.00 0.00 0.00 78 1018.3
20200404193019 46 325 8.0 12.0 0.00 0.00 0.00 79 1018.3
20200404192019 46 332 4.0 11.0 0.00 0.00 0.00 79 1018.3
20200404191018 46 353 6.0 11.0 0.00 0.00 0.00 79 1018.3
20200404190018 46 353 5.0 9.0 0.00 0.00 0.00 80 1019.3
20200404185018 46 353 5.0 9.0 0.00 0.00 0.00 80 1019.3
20200404184018 45 342 3.0 12.0 0.00 0.00 0.00 80 1019.3
20200404183018 45 0 6.0 9.0 0.00 0.00 0.00 80 1019.3
20200404182018 45 322 5.0 9.0 0.00 0.00 0.00 81 1019.3
20200404181019 45 339 6.0 8.0 0.00 0.00 0.00 82 1019.3
20200404180018 44 10 6.0 9.0 0.00 0.00 0.00 82 1019.3
20200404175018 44 353 9.0 9.0 0.00 0.00 0.00 83 1019.3
20200404174018 44 26 6.0 9.0 0.00 0.00 0.00 83 1019.3
20200404173018 43 10 6.0 8.0 0.00 0.00 0.00 83 1019.3
20200404172018 43 34 5.0 9.0 0.00 0.00 0.00 84 1019.3
20200404171018 42 29 6.0 11.0 0.00 0.00 0.00 84 1019.3
20200404170018 42 353 11.0 12.0 0.00 0.00 0.00 86 1019.3
20200404165018 41 348 9.0 9.0 0.00 0.00 0.00 86 1019.3
20200404164018 41 0 8.0 11.0 0.00 0.00 0.00 86 1019.3
20200404163018 41 0 6.0 13.0 0.00 0.00 0.00 86 1019.3
20200404162018 41 353 6.0 11.0 0.00 0.00 0.00 86 1019.3
20200404161018 41 0 9.0 10.0 0.00 0.00 0.00 87 1019.3
20200404160018 41 349 9.0 13.0 0.00 0.00 0.00 87 1019.3
20200404155018 40 353 8.0 13.0 0.00 0.00 0.00 87 1019.3
20200404154018 40 348 8.0 11.0 0.00 0.00 0.00 87 1019.3
20200404153018 40 0 8.0 13.0 0.00 0.00 0.00 87 1019.3
20200404152018 41 0 11.0 13.0 0.00 0.00 0.00 88 1019.3
20200404151018 40 353 9.0 15.0 0.00 0.00 0.00 88 1019.3
20200404150018 40 353 11.0 14.0 0.00 0.00 0.00 87 1019.3
20200404145018 40 1 8.0 13.0 0.00 0.00 0.00 87 1019.3
20200404144018 40 1 8.0 15.0 0.00 0.00 0.00 87 1019.3
20200404143018 40 0 9.0 12.0 0.00 0.00 0.00 87 1019.3
20200404142018 40 350 8.0 13.0 0.00 0.00 0.00 87 1019.3
20200404141018 40 339 8.0 14.0 0.00 0.00 0.00 87 1019.3
20200404140018 40 353 11.0 15.0 0.00 0.00 0.00 86 1019.3
20200404135018 40 339 11.0 15.0 0.00 0.00 0.00 86 1019.3
20200404134017 40 353 11.0 12.0 0.00 0.00 0.00 86 1019.3
20200404133017 40 334 8.0 11.0 0.00 0.00 0.00 86 1019.3
20200404132018 40 338 6.0 9.0 0.00 0.00 0.00 86 1019.3
20200404131018 40 328 6.0 11.0 0.00 0.00 0.00 86 1019.3
20200404130017 40 298 5.0 11.0 0.00 0.00 0.00 86 1019.3
20200404125017 40 341 8.0 10.0 0.00 0.00 0.00 86 1019.3
20200404124018 40 334 6.0 8.0 0.00 0.00 0.00 84 1018.3
20200404123017 40 316 8.0 11.0 0.00 0.00 0.00 84 1018.3
20200404122018 40 312 5.0 10.0 0.00 0.00 0.00 84 1018.3
20200404121017 40 333 10.0 10.0 0.00 0.00 0.00 83 1018.3
20200404120017 41 341 6.0 8.0 0.00 0.00 0.00 83 1018.3
20200404115017 41 319 3.0 8.0 0.00 0.00 0.00 82 1018.3
20200404114017 41 327 5.0 9.0 0.00 0.00 0.00 81 1018.3
20200404113017 41 353 4.0 8.0 0.00 0.00 0.00 81 1017.3
20200404112017 41 331 0.0 9.0 0.00 0.00 0.00 80 1017.3
20200404111017 42 331 8.0 11.0 0.00 0.00 0.00 80 1017.3
20200404110018 42 344 3.0 10.0 0.00 0.00 0.00 79 1017.3
20200404105017 42 325 8.0 11.0 0.00 0.00 0.00 78 1017.3
20200404104017 42 328 4.0 9.0 0.00 0.00 0.00 76 1017.3